COSMOS 1275 DEB

Satellite information

Favourite Embed

Satellite Type and Status

DEBRISIN ORBIT

Key statistics

Satellite COSMOS 1275 DEB at a glance.

Uptime

16106

Days in orbit

Revolutions

≈ 13.7

Per day

Orbit

LEO

Low Earth Orbit

Inclination

83.0

Latest

Satellite identification and parameters

Extended collection of information and parameters for COSMOS 1275 DEB.

Object identification

Identified? True

Debris? True

Object name: COSMOS 1275 DEB

International designator: 1981-053HE

Object number (NORAD): 13810

Object ID (CCSDS): 13810

Country: COMMONWEALTH OF INDEPENDENT STATES (CIS)

Current information (Y/N): Y

RCS size: SMALL

Orbital parameters

Period: 105.303 minutes

Inclination: 83.0114 deg

SMA: 7386.741 km

Apoapsis: 1098.791 km

Periapsis: 918.42 km

RAAN: 257.3083 deg

Eccentricy: 0.0122091

Argument of periapsis: 243.9734 deg

Mean anomaly: 272.9449 deg

Mean motion: 13.67487917 rev/day

Mean motion (dot): 0.00000802 rev/day2

B* drag term: 0.00088892 1/REarth

Two-line elements (TLE)

Creation date: July 7, 2025, 5:18 a.m.

Reference frame: TEME

Reference center: EARTH

Epoch: July 6, 2025, 4:25 p.m. UTC

TLE line 0: 0 COSMOS 1275 DEB

TLE line 1: 1 13810U 81053HE 25187.68459862 .00000802 00000-0 88892-3 0 9999

TLE line 2: 2 13810 83.0114 257.3083 0122091 243.9734 272.9449 13.67487917108916

Live tracking on map

Real-time ground track for satellite COSMOS 1275 DEB.

In-orbit conjunctions

A list of the most updated potential collisions computed for object COSMOS 1275 DEB.

Target Orbit TCA Probability of collision Miss distance Type
EXPLORER 11 LEO 2024-11-02 20:29:20 0.0003607363 277.0 (m) PAYLOAD

Associated space launch

Navigation satellite providing location information for the Tsiklon-B navigation system

COSMOS 1275 DEB was lifted into orbit during the mission ‘Kosmos-3M | Parus 27’, on board a Kosmos-3M space rocket.

The launch took place on June 4, 1981, 3:41 p.m. from 132/2.

For more information about the launch, click the button.

Launch to space Kosmos-3M | Parus 27
Kosmos-3M | Parus 27

Agency: N/A

Status: Launch Successful

Launch date: June 4, 1981, 3:41 p.m. UTC

Rocket: Kosmos-3M

Launch pad: 132/2

Location: Plesetsk Cosmodrome, Russian Federation

...

Latest news about this satellite

There are no fresh news available about this satellite. Check back as we update our databases every day.


Newsletter sign-up

Weekly statistics, charts and insights to help you stay on top of the space industry.